Вернуться в каталог

SL-19 DEB

АктивенUNKNOWN
NORAD 23564·DEBRIS·🇷🇺 Russia

Запущен Dec 26, 1994 с Baikonur Cosmodrome

Loading…

Ближайшие Пролёты (ближайшие 24 часа)

TLE

СвежийSource: Space-Track

Эпоха: Sep 14, 2026, 06:35 UTC

1 23564U 94085V   26257.27467355 -.00000041  00000-0  43974-4 0  9994
2 23564  64.9999   1.1490 0183082  59.3090 328.3141 11.34902626298286

Отслеживайте SL-19 DEB в реальном времени с AllMySat

Download on the App Store